{"data":{"norad_id":65315,"intl_designator":"2025-188A","name":"PELICAN-3","alt_names":[],"object_type":"PAYLOAD","status":"ACTIVE","operator":null,"country":"US","launch_date":"2025-08-26","launch_site_code":"AFWTR","launch_vehicle":null,"mission":null,"orbit_class":"UNKNOWN","rcs_meters":null,"size_class":null,"mass_kg":null,"dimensions":null,"purposes":["earth_obs"],"wikipedia_slug":null,"has_3d_model":false,"image_url":null,"decayed_at":null,"tle_current":{"epoch":"2026-09-17T18:32:04.497792Z","epoch_age_seconds":250197,"freshness":"STALE","line1":"1 65315U 25188A   26260.77227428  .00005492  00000+0  13489-3 0  9996","line2":"2 65315  97.1887 335.5292 0000512  52.9151 307.2143 15.41074407 59571","mean_motion":15.41074407,"eccentricity":5.12e-5,"inclination_deg":97.1887,"raan_deg":335.5292,"arg_perigee_deg":52.9151,"mean_anomaly_deg":307.2143,"bstar":0.00013489,"rev_number":5957,"period_min":93.441302604151,"perigee_km":442.58788941706,"apogee_km":443.28636740781,"semimajor_km":6821.0741284124,"source":"CELESTRAK","updated_at":"2026-09-20T09:00:34.724431Z"}}}